User: anonymous   Login
Location: Black Rock Desert
(40.7548°N, 119.2364°W)
Time: 05:48:13
(UTC-08:00)
Language:

Cosmos 1340 Rocket - Orbit

View from above orbital plane
View from above orbital plane
View from above satellite
View from above satellite

Ground track
Ground track

The orbit data is extracted from the following two-line orbital elements,

1 13068U 82013B   17053.22092863  .00000144  00000-0  80860-5 0  9996
2 13068  81.2048 353.7020 0021527 341.0233  19.0186 15.06837457906181
Epoch (UTC): 22 February 2017 05:18:08
Eccentricity: 0.0021527
inclination: 81.2048°
perigee height: 531 km
apogee height: 561 km
right ascension of ascending node: 353.7020°
argument of perigee: 341.0233°
revolutions per day: 15.06837457
mean anomaly at epoch: 19.0186°
orbit number at epoch: 90618

The dashed part of the orbit path shows where the satellite is in the earth's shadow,  

DLR